Retour au catalogue

STARLINK-31424

ActifCommunicationsVLEO
NORAD 59247·PAYLOAD·🇺🇸 United States

Lancé Mar 16, 2024 depuis Cape Canaveral Space Force Station

Loading…

Prochains Passages (prochaines 24 heures)

TLE

FraisSource: CelesTrak SupGP

Époque: Sep 15, 2026, 03:25 UTC

1 59247C 24049S   26258.14284722  .00056447  00000+0  20443-2 0  2587
2 59247  43.0029 150.1358 0001314 276.9501 332.7809 15.27553667    19

Suivez STARLINK-31424 en temps réel avec AllMySat

Download on the App Store